When you browse on this site, cookies collect data to enhance your experience and personalize the content and advertising you see.
Visit our Privacy Policy to learn more. By continuing to use the site, you agree to this use of cookies and data.
  • Em Portugal
  • Lista de países
  • Para 7 dias
  • Temperatura da água
  • Mapas de satélite
  • Mapa do tempo
  • Widgets de tempo
  • user-avatar
    Iniciar Sessão

    Previsão horária em Skorczow

    Hoje, 20 Junho, Quinta-feira

    Tempo Temperatura Precipitação Vento Pressão Humidade
    00:00 +21°C° 0 mm 1 m/s 740 mmHg 77%
    01:00 +21°C° 0 mm 1 m/s 740 mmHg 80%
    02:00 +20°C° 0 mm 1 m/s 740 mmHg 81%
    03:00 +20°C° 0 mm 1 m/s 740 mmHg 82%
    04:00 +19°C° 0 mm 1 m/s 740 mmHg 83%
    05:00 +21°C° 0 mm 1 m/s 740 mmHg 79%
    06:00 +23°C° 0 mm 1 m/s 740 mmHg 75%
    07:00 +22°C° 0 mm 0 m/s 740 mmHg 71%
    08:00 +25°C° 0 mm 1 m/s 740 mmHg 66%
    09:00 +27°C° 0 mm 1 m/s 740 mmHg 62%
    10:00 +28°C° 0 mm 1 m/s 740 mmHg 57%
    11:00 +29°C° 0 mm 1 m/s 740 mmHg 55%
    12:00 +29°C° 0 mm 1 m/s 740 mmHg 53%
    13:00 +30°C° 0 mm 1 m/s 740 mmHg 50%
    14:00 +29°C° 0 mm 1 m/s 740 mmHg 54%
    15:00 +29°C° 0 mm 1 m/s 740 mmHg 57%
    16:00 +29°C° 0 mm 1 m/s 740 mmHg 61%
    17:00 +27°C° 0.2 mm 2 m/s 739 mmHg 66%
    18:00 +26°C° 0.2 mm 2 m/s 739 mmHg 72%
    19:00 +24°C° 0.2 mm 2 m/s 739 mmHg 78%
    20:00 +23°C° 0.3 mm 2 m/s 740 mmHg 79%
    21:00 +22°C° 0.3 mm 1 m/s 740 mmHg 80%
    22:00 +21°C° 0.3 mm 1 m/s 740 mmHg 80%
    23:00 +21°C° 0 mm 1 m/s 740 mmHg 81%

    Amanhã, 21 Junho, Sexta-feira

    Tempo Temperatura Precipitação Vento Pressão Humidade
    00:00 +20°C° 0 mm 1 m/s 740 mmHg 82%
    01:00 +20°C° 0 mm 1 m/s 740 mmHg 82%
    02:00 +20°C° 0 mm 1 m/s 740 mmHg 85%
    03:00 +19°C° 0 mm 1 m/s 740 mmHg 87%
    04:00 +18°C° 0 mm 2 m/s 741 mmHg 90%
    05:00 +19°C° 0.4 mm 2 m/s 741 mmHg 88%
    06:00 +20°C° 0.4 mm 2 m/s 741 mmHg 87%
    07:00 +21°C° 0.4 mm 3 m/s 742 mmHg 86%
    08:00 +24°C° 0.1 mm 3 m/s 742 mmHg 82%
    09:00 +25°C° 0.1 mm 3 m/s 742 mmHg 77%
    10:00 +26°C° 0.1 mm 2 m/s 742 mmHg 73%
    11:00 +26°C° 1.8 mm 3 m/s 742 mmHg 71%
    12:00 +27°C° 1.8 mm 3 m/s 742 mmHg 70%
    13:00 +27°C° 1.8 mm 3 m/s 742 mmHg 68%
    14:00 +27°C° 1.5 mm 3 m/s 742 mmHg 72%
    15:00 +26°C° 1.5 mm 3 m/s 742 mmHg 75%
    16:00 +26°C° 1.5 mm 3 m/s 742 mmHg 78%
    17:00 +24°C° 0.3 mm 3 m/s 742 mmHg 82%
    18:00 +22°C° 0.3 mm 3 m/s 742 mmHg 86%
    19:00 +21°C° 0.3 mm 3 m/s 742 mmHg 89%
    20:00 +20°C° 0 mm 2 m/s 742 mmHg 89%
    21:00 +20°C° 0 mm 2 m/s 743 mmHg 89%
    22:00 +21°C° 0 mm 1 m/s 743 mmHg 88%
    23:00 +20°C° 0.1 mm 2 m/s 743 mmHg 89%

    Depois de amanhã, 22 Junho, Sábado

    Tempo Temperatura Precipitação Vento Pressão Humidade
    00:00 +19°C° 0.1 mm 2 m/s 743 mmHg 90%
    01:00 +19°C° 0.1 mm 2 m/s 743 mmHg 91%
    02:00 +19°C° 0 mm 2 m/s 743 mmHg 93%
    03:00 +19°C° 0 mm 2 m/s 744 mmHg 94%
    04:00 +18°C° 0 mm 3 m/s 744 mmHg 95%
    05:00 +19°C° 0.1 mm 3 m/s 744 mmHg 94%
    06:00 +20°C° 0.1 mm 3 m/s 745 mmHg 93%
    07:00 +20°C° 0.1 mm 3 m/s 745 mmHg 91%
    08:00 +21°C° 0.2 mm 4 m/s 745 mmHg 87%
    09:00 +22°C° 0.2 mm 4 m/s 745 mmHg 83%
    10:00 +23°C° 0.2 mm 4 m/s 745 mmHg 79%
    11:00 +23°C° 0.6 mm 4 m/s 745 mmHg 76%
    12:00 +25°C° 0.6 mm 5 m/s 745 mmHg 72%
    13:00 +26°C° 0.6 mm 5 m/s 745 mmHg 69%
    14:00 +26°C° 0.4 mm 5 m/s 745 mmHg 71%
    15:00 +25°C° 0.4 mm 5 m/s 744 mmHg 72%
    16:00 +25°C° 0.4 mm 4 m/s 744 mmHg 74%
    17:00 +23°C° 0.2 mm 4 m/s 744 mmHg 77%
    18:00 +22°C° 0.2 mm 4 m/s 744 mmHg 80%
    19:00 +21°C° 0.2 mm 4 m/s 744 mmHg 83%
    20:00 +20°C° 0 mm 4 m/s 744 mmHg 84%
    21:00 +19°C° 0 mm 3 m/s 744 mmHg 85%
    22:00 +18°C° 0 mm 3 m/s 744 mmHg 86%
    23:00 +18°C° 0 mm 4 m/s 744 mmHg 86%

    23 Junho, Domingo

    Tempo Temperatura Precipitação Vento Pressão Humidade
    00:00 +18°C° 0 mm 4 m/s 744 mmHg 86%
    01:00 +17°C° 0 mm 4 m/s 744 mmHg 87%
    02:00 +17°C° 0.1 mm 4 m/s 744 mmHg 88%
    03:00 +16°C° 0.1 mm 3 m/s 744 mmHg 89%
    04:00 +16°C° 0.1 mm 3 m/s 744 mmHg 91%
    05:00 +16°C° 0.2 mm 3 m/s 744 mmHg 90%
    06:00 +15°C° 0.2 mm 4 m/s 745 mmHg 90%
    07:00 +17°C° 0.2 mm 4 m/s 745 mmHg 89%
    08:00 +17°C° 0.2 mm 3 m/s 745 mmHg 89%
    09:00 +18°C° 0.2 mm 3 m/s 745 mmHg 89%
    10:00 +18°C° 0.2 mm 3 m/s 745 mmHg 88%
    11:00 +19°C° 0.1 mm 3 m/s 745 mmHg 86%
    12:00 +20°C° 0.1 mm 3 m/s 745 mmHg 83%
    13:00 +21°C° 0.1 mm 3 m/s 745 mmHg 81%
    14:00 +21°C° 0.1 mm 3 m/s 745 mmHg 82%
    15:00 +21°C° 0.1 mm 3 m/s 746 mmHg 82%
    16:00 +21°C° 0.1 mm 3 m/s 746 mmHg 83%
    17:00 +21°C° 0.1 mm 3 m/s 746 mmHg 85%
    18:00 +20°C° 0.1 mm 3 m/s 746 mmHg 87%
    19:00 +19°C° 0.1 mm 2 m/s 746 mmHg 89%
    20:00 +19°C° 0 mm 2 m/s 746 mmHg 90%
    21:00 +18°C° 0 mm 2 m/s 746 mmHg 91%
    22:00 +18°C° 0 mm 2 m/s 746 mmHg 92%
    23:00 +18°C° 0 mm 2 m/s 746 mmHg 93%

    24 Junho, Segunda-feira

    Tempo Temperatura Precipitação Vento Pressão Humidade
    00:00 +17°C° 0 mm 2 m/s 746 mmHg 94%
    01:00 +17°C° 0 mm 3 m/s 746 mmHg 95%
    02:00 +17°C° 0.4 mm 3 m/s 746 mmHg 95%
    03:00 +17°C° 0.4 mm 3 m/s 746 mmHg 95%
    04:00 +17°C° 0.4 mm 3 m/s 746 mmHg 95%
    05:00 +18°C° 0.2 mm 3 m/s 747 mmHg 95%
    06:00 +18°C° 0.2 mm 3 m/s 747 mmHg 95%
    07:00 +18°C° 0.2 mm 3 m/s 747 mmHg 95%
    08:00 +18°C° 0 mm 3 m/s 747 mmHg 94%
    09:00 +19°C° 0 mm 4 m/s 748 mmHg 93%
    10:00 +19°C° 0 mm 4 m/s 748 mmHg 92%
    11:00 +20°C° 0.1 mm 4 m/s 748 mmHg 91%
    12:00 +20°C° 0.1 mm 4 m/s 748 mmHg 90%
    13:00 +20°C° 0.1 mm 4 m/s 748 mmHg 89%
    14:00 +21°C° 0 mm 3 m/s 748 mmHg 87%
    15:00 +21°C° 0 mm 3 m/s 748 mmHg 86%
    16:00 +22°C° 0 mm 3 m/s 748 mmHg 84%
    17:00 +21°C° 0 mm 3 m/s 748 mmHg 86%
    18:00 +21°C° 0 mm 2 m/s 748 mmHg 87%
    19:00 +21°C° 0 mm 2 m/s 748 mmHg 88%
    20:00 +20°C° 0 mm 2 m/s 749 mmHg 90%
    21:00 +19°C° 0 mm 2 m/s 749 mmHg 92%
    22:00 +18°C° 0 mm 2 m/s 749 mmHg 95%
    23:00 +18°C° 0 mm 2 m/s 749 mmHg 95%

    25 Junho, Terça-feira

    Tempo Temperatura Precipitação Vento Pressão Humidade
    00:00 +17°C° 0 mm 2 m/s 749 mmHg 96%
    01:00 +17°C° 0 mm 2 m/s 749 mmHg 96%
    02:00 +17°C° 0 mm 2 m/s 749 mmHg 96%
    03:00 +17°C° 0 mm 2 m/s 749 mmHg 97%
    04:00 +17°C° 0 mm 2 m/s 749 mmHg 97%
    05:00 +18°C° 0 mm 2 m/s 749 mmHg 94%
    06:00 +20°C° 0 mm 1 m/s 749 mmHg 91%
    07:00 +21°C° 0 mm 1 m/s 749 mmHg 88%
    08:00 +21°C° 0 mm 2 m/s 749 mmHg 85%
    09:00 +23°C° 0 mm 2 m/s 749 mmHg 82%
    10:00 +24°C° 0 mm 2 m/s 749 mmHg 79%
    11:00 +25°C° 0 mm 2 m/s 749 mmHg 77%
    12:00 +26°C° 0 mm 2 m/s 749 mmHg 75%
    13:00 +27°C° 0 mm 2 m/s 749 mmHg 72%
    14:00 +27°C° 0.1 mm 2 m/s 749 mmHg 71%
    15:00 +27°C° 0.1 mm 2 m/s 749 mmHg 70%
    16:00 +28°C° 0.1 mm 2 m/s 748 mmHg 70%
    17:00 +27°C° 0 mm 2 m/s 748 mmHg 74%
    18:00 +26°C° 0 mm 2 m/s 749 mmHg 79%
    19:00 +25°C° 0 mm 2 m/s 749 mmHg 84%
    20:00 +24°C° 0 mm 2 m/s 749 mmHg 86%
    21:00 +21°C° 0 mm 2 m/s 749 mmHg 89%
    22:00 +20°C° 0 mm 2 m/s 749 mmHg 92%
    23:00 +20°C° 0 mm 2 m/s 749 mmHg 93%
    Mostrar mais